Weather History for KAVL - March, 2013

Change the Weather History Date:

Friday, March 29, 2013

  Actual Average Record
Temperature  
Mean Temperature 41 °F 50 °F  
Max Temperature 57 °F 63 °F 84 °F (1907)
Min Temperature 25 °F 38 °F 19 °F (1982)
Degree Days  
Heating Degree Days 24 15  
Month to date heating degree days 688 526  
Since 1 July heating degree days 3629 3743  
Cooling Degree Days 0 0  
Month to date cooling degree days 0 0  
Year to date cooling degree days 0 0  
Moisture  
Dew Point 26 °F    
Average Humidity 56    
Maximum Humidity 86    
Minimum Humidity 26    
Precipitation  
Precipitation 0.01 in 0.13 in 3.66 in (1991)
Month to date precipitation 2.97 3.58  
Year to date precipitation 15.11 11.01  
Snow  
Snow 0.00 in 0.00 in 0.50 in (1941)
Month to date snowfall 0.3 1.8  
Since 1 July snowfall 0.5 9.1  
Snow Depth 0.00 in    
Sea Level Pressure  
Sea Level Pressure 30.29 in    
Wind  
Wind Speed 7 mph (NNW)    
Max Wind Speed 20 mph    
Max Gust Speed 24 mph    
Visibility 10 miles    
Events Rain    
T = Trace of Precipitation, MM = Missing Value Source: NWS Daily Summary

Daily Weather History Graph

Daily Weather History Graph

Search for Another Location

Airport or City:

Trip Planner

Search our weather history database for the weather conditions in past years. The results will help you decide how hot, cold, wet, or windy it might be!

Date:

Astronomy

Mar. 29, 2013 Rise Set
Actual Time 7:20 AM EDT 7:49 PM EDT
Civil Twilight 6:55 AM EDT 8:15 PM EDT
Nautical Twilight 6:25 AM EDT 8:45 PM EDT
Astronomical Twilight 5:54 AM EDT 9:15 PM EDT
Moon 10:40 PM EDT (3/29) 8:34 AM EDT (3/29)
Length of Visible Light 13h 19m
Length of Day
12h 28m
Waning Gibbous, 93% of the Moon is Illuminated
Mar 29
Waning Gibbous
Apr 3
Last Quarter
Apr 10
New
Apr 18
First Quarter
Apr 25
Full

Hourly Weather History & Observations

Time (EDT) Temp. Windchill Dew Point Humidity Pressure Visibility Wind Dir Wind Speed Gust Speed Precip Events Conditions
12:54 AM 30.9 °F - 21.0 °F 67% 30.31 in 10.0 mi Calm Calm - N/A   Clear
1:54 AM 28.9 °F - 21.0 °F 72% 30.32 in 10.0 mi Calm Calm - N/A   Clear
2:54 AM 27.0 °F 18.7 °F 21.0 °F 78% 30.31 in 10.0 mi NNW 8.1 mph - N/A   Clear
3:54 AM 27.0 °F 18.0 °F 21.0 °F 78% 30.29 in 10.0 mi NNW 9.2 mph - N/A   Clear
4:54 AM 28.0 °F 24.2 °F 21.0 °F 75% 30.30 in 10.0 mi SW 3.5 mph - N/A   Clear
5:54 AM 28.9 °F 21.1 °F 21.0 °F 72% 30.30 in 10.0 mi NNW 8.1 mph - N/A   Clear
6:54 AM 28.0 °F 20.0 °F 21.0 °F 75% 30.32 in 10.0 mi NNW 8.1 mph - N/A   Clear
7:54 AM 26.1 °F - 21.0 °F 81% 30.34 in 10.0 mi Calm Calm - N/A   Clear
8:54 AM 32.0 °F - 21.9 °F 66% 30.34 in 10.0 mi Calm Calm - N/A   Clear
9:54 AM 37.9 °F - 24.1 °F 57% 30.34 in 10.0 mi Calm Calm - N/A   Clear
10:54 AM 45.0 °F 43.5 °F 21.0 °F 39% 30.32 in 10.0 mi WSW 3.5 mph - N/A   Clear
11:54 AM 50.0 °F - 19.9 °F 31% 30.31 in 10.0 mi Variable 3.5 mph - N/A   Clear
12:54 PM 54.0 °F - 19.0 °F 25% 30.27 in 10.0 mi SW 5.8 mph - N/A   Partly Cloudy
1:54 PM 55.0 °F - 19.9 °F 25% 30.25 in 10.0 mi NNW 9.2 mph - 0.00 in Rain Light Rain
2:54 PM 54.0 °F - 19.9 °F 26% 30.24 in 10.0 mi NNW 11.5 mph - 0.00 in   Overcast
3:54 PM 53.1 °F - 25.0 °F 34% 30.24 in 10.0 mi NW 16.1 mph - N/A   Overcast
4:54 PM 48.0 °F - 33.1 °F 56% 30.26 in 10.0 mi NNW 10.4 mph - 0.00 in Rain Light Rain
5:54 PM 46.0 °F 41.4 °F 35.1 °F 66% 30.26 in 10.0 mi North 9.2 mph 17.3 mph 0.00 in   Overcast
6:54 PM 44.1 °F 39.0 °F 37.0 °F 76% 30.27 in 10.0 mi NNW 9.2 mph - 0.00 in   Overcast
7:54 PM 41.0 °F 35.8 °F 37.0 °F 86% 30.27 in 10.0 mi NNW 8.1 mph - 0.00 in Rain Light Rain
8:54 PM 41.0 °F 34.7 °F 37.9 °F 89% 30.27 in 10.0 mi NNW 10.4 mph - 0.00 in Rain Light Rain
9:54 PM 39.9 °F 35.1 °F 37.0 °F 89% 30.26 in 10.0 mi NNW 6.9 mph - 0.00 in   Overcast
10:54 PM 39.9 °F 35.1 °F 37.9 °F 93% 30.25 in 10.0 mi North 6.9 mph - 0.00 in Rain Light Rain
11:54 PM 39.9 °F 32.9 °F 37.9 °F 93% 30.23 in 10.0 mi NNW 11.5 mph - 0.01 in Rain Light Rain